Location: La Oliva
(42.2466°N, 2.9955°E)
Time: 09:32:51
(UTC+00:00)

ARIANE 5 R/B - Pass Details

Date: 22 April 2021
Orbit: 620 x 656 km, 98.1° (Epoch: 06 May)

Event Time Altitude Azimuth Distance (km) Brightness Sun altitude
Exits shadow 21:41:36 41° 277° (W) 921 3.6 -28.2°
Drops below altitude 10° 21:45:22 10° 333° (NNW) 2,016 6.1 -28.6°
Sets 21:47:40 0° 340° (NNW) 2,923 7.2 -28.8°
